QFA21E YBBN-YSSY

Flight info

Callsign QFA21E
Flight time N/A
Altitude 34000
Route SANEG H91 IGDAM H652 BOREE
Aircraft A21N/M-SDE2E3FGHIRWXY/LB1

Departure

Time 2026-05-05 09:29
Airport Brisbane International Airport (YBBN)

Arrival

Time N/A
Airport Sydney Kingsford Smith International Airport (YSSY)
Time Latitude Longitude Altitude Speed Heading
2026-05-05 08:30 -27.38711 153.11962 21 ft 0 kts 349°
2026-05-05 09:02 -27.38713 153.11962 21 ft 2 kts 349°
2026-05-05 09:02 -27.38720 153.11963 22 ft 1 kts 349°
2026-05-05 09:03 -27.38725 153.11964 21 ft 1 kts 349°
2026-05-05 09:03 -27.38730 153.11966 22 ft 1 kts 349°
2026-05-05 09:03 -27.38735 153.11967 22 ft 1 kts 349°
2026-05-05 09:03 -27.38740 153.11968 21 ft 1 kts 347°
2026-05-05 09:04 -27.38746 153.11969 22 ft 1 kts 350°
2026-05-05 09:04 -27.38754 153.11970 22 ft 1 kts 357°
2026-05-05 09:04 -27.38760 153.11970 22 ft 1 kts 44°
2026-05-05 09:04 -27.38763 153.11967 22 ft 0 kts 70°
2026-05-05 09:16 -27.38763 153.11968 21 ft 0 kts 72°
2026-05-05 09:17 -27.38763 153.11969 21 ft 1 kts 77°
2026-05-05 09:17 -27.38760 153.11995 41 ft 6 kts 86°
2026-05-05 09:17 -27.38770 153.12054 22 ft 9 kts 119°
2026-05-05 09:17 -27.38823 153.12116 21 ft 13 kts 141°
2026-05-05 09:18 -27.38863 153.12153 21 ft 0 kts 141°
2026-05-05 09:18 -27.38869 153.12159 22 ft 3 kts 140°
2026-05-05 09:19 -27.38888 153.12186 21 ft 6 kts 131°
2026-05-05 09:19 -27.38936 153.12213 21 ft 9 kts 175°
2026-05-05 09:19 -27.39005 153.12187 23 ft 12 kts 206°
2026-05-05 09:19 -27.39092 153.12138 22 ft 15 kts 207°
2026-05-05 09:20 -27.39198 153.12076 21 ft 18 kts 207°
2026-05-05 09:20 -27.39319 153.12008 21 ft 21 kts 207°
2026-05-05 09:20 -27.39455 153.11930 22 ft 23 kts 207°
2026-05-05 09:20 -27.39605 153.11845 21 ft 25 kts 207°
2026-05-05 09:21 -27.39768 153.11751 23 ft 27 kts 207°
2026-05-05 09:21 -27.39873 153.11690 21 ft 4 kts 207°
2026-05-05 09:21 -27.39915 153.11666 21 ft 9 kts 207°
2026-05-05 09:21 -27.39982 153.11628 23 ft 13 kts 207°
2026-05-05 09:22 -27.40070 153.11578 21 ft 16 kts 207°
2026-05-05 09:22 -27.40140 153.11538 23 ft 18 kts 207°
2026-05-05 09:22 -27.40201 153.11506 22 ft 9 kts 195°
2026-05-05 09:22 -27.40251 153.11532 21 ft 0 kts 128°
2026-05-05 09:25 -27.40259 153.11548 23 ft 4 kts 119°
2026-05-05 09:26 -27.40281 153.11591 21 ft 8 kts 118°
2026-05-05 09:26 -27.40311 153.11662 21 ft 12 kts 108°
2026-05-05 09:26 -27.40309 153.11763 22 ft 14 kts 76°
2026-05-05 09:26 -27.40241 153.11847 22 ft 16 kts 25°
2026-05-05 09:27 -27.40229 153.11853 20 ft 0 kts 25°
2026-05-05 09:28 -27.40220 153.11858 20 ft 5 kts 25°
2026-05-05 09:28 -27.40008 153.11970 22 ft 64 kts 25°
2026-05-05 09:28 -27.39425 153.12310 22 ft 123 kts 27°
2026-05-05 09:28 -27.38499 153.12834 41 ft 170 kts 26°
2026-05-05 09:29 -27.37431 153.13439 498 ft 173 kts 27°
2026-05-05 09:29 -27.36358 153.14107 988 ft 175 kts 40°
2026-05-05 09:29 -27.35515 153.15084 1535 ft 175 kts 50°
2026-05-05 09:29 -27.34683 153.16153 1903 ft 187 kts 50°
2026-05-05 09:30 -27.33790 153.17298 2149 ft 205 kts 50°
2026-05-05 09:30 -27.32799 153.18539 2328 ft 224 kts 49°
2026-05-05 09:30 -27.31702 153.19886 2538 ft 244 kts 49°
2026-05-05 09:30 -27.30503 153.21344 2782 ft 262 kts 48°
2026-05-05 09:31 -27.29254 153.22886 3207 ft 270 kts 54°
2026-05-05 09:31 -27.28513 153.24796 3724 ft 268 kts 84°
2026-05-05 09:31 -27.28380 153.26874 4323 ft 267 kts 90°
2026-05-05 09:31 -27.28344 153.28970 4934 ft 269 kts 91°
2026-05-05 09:32 -27.28299 153.31089 5520 ft 271 kts 90°
2026-05-05 09:32 -27.28235 153.33188 6087 ft 275 kts 89°
2026-05-05 09:32 -27.28162 153.35380 6673 ft 277 kts 91°
2026-05-05 09:32 -27.28420 153.37492 7238 ft 277 kts 111°
2026-05-05 09:33 -27.29441 153.39297 7835 ft 276 kts 139°
2026-05-05 09:33 -27.31126 153.40361 8405 ft 278 kts 166°
2026-05-05 09:33 -27.33013 153.40691 9045 ft 280 kts 175°
2026-05-05 09:33 -27.34991 153.40851 9687 ft 283 kts 176°
2026-05-05 09:34 -27.36962 153.40976 10279 ft 286 kts 179°
2026-05-05 09:34 -27.38958 153.40738 10759 ft 292 kts 193°
2026-05-05 09:34 -27.40941 153.40155 11270 ft 297 kts 197°
2026-05-05 09:34 -27.42943 153.39498 11796 ft 302 kts 197°
2026-05-05 09:35 -27.44973 153.38828 12354 ft 306 kts 198°
2026-05-05 09:35 -27.48852 153.36837 13454 ft 310 kts 219°
2026-05-05 09:35 -27.50545 153.35308 14028 ft 313 kts 223°
2026-05-05 09:36 -27.52211 153.33719 14555 ft 315 kts 224°
2026-05-05 09:36 -27.53884 153.32116 15111 ft 317 kts 224°
2026-05-05 09:36 -27.55525 153.30439 15664 ft 317 kts 232°
2026-05-05 09:36 -27.56826 153.28469 16210 ft 313 kts 244°
2026-05-05 09:37 -27.57860 153.26307 16797 ft 312 kts 248°
2026-05-05 09:37 -27.58831 153.24117 17360 ft 314 kts 249°
2026-05-05 09:37 -27.59802 153.21910 17922 ft 315 kts 249°
2026-05-05 09:37 -27.60856 153.19722 18458 ft 320 kts 243°
2026-05-05 09:38 -27.62275 153.17745 18920 ft 330 kts 230°
2026-05-05 09:38 -27.64115 153.16145 19427 ft 338 kts 219°
2026-05-05 09:38 -27.66132 153.14760 19906 ft 340 kts 217°
2026-05-05 09:38 -27.68159 153.13430 20378 ft 341 kts 217°
2026-05-05 09:39 -27.70222 153.12078 20855 ft 343 kts 217°
2026-05-05 09:39 -27.72280 153.10721 21306 ft 344 kts 218°
2026-05-05 09:39 -27.74345 153.09353 21793 ft 345 kts 218°
2026-05-05 09:39 -27.76421 153.07974 22295 ft 345 kts 218°
2026-05-05 09:40 -27.78485 153.06600 22781 ft 346 kts 219°
2026-05-05 09:40 -27.80564 153.05223 23295 ft 347 kts 217°
2026-05-05 09:40 -27.82749 153.03988 23760 ft 353 kts 213°
2026-05-05 09:40 -27.85018 153.02887 24122 ft 358 kts 211°
2026-05-05 09:41 -27.87355 153.01842 24448 ft 362 kts 210°
2026-05-05 09:41 -27.89717 153.00826 24784 ft 366 kts 210°
2026-05-05 09:41 -27.92115 152.99807 25129 ft 369 kts 210°
2026-05-05 09:41 -27.94526 152.98780 25473 ft 371 kts 211°
2026-05-05 09:42 -27.96946 152.97739 25803 ft 374 kts 211°
2026-05-05 09:42 -27.99382 152.96682 26133 ft 376 kts 211°
2026-05-05 09:42 -28.01836 152.95610 26457 ft 379 kts 212°
2026-05-05 09:42 -28.04300 152.94530 26777 ft 381 kts 212°
2026-05-05 09:43 -28.06779 152.93440 27109 ft 384 kts 212°
2026-05-05 09:43 -28.09275 152.92341 27426 ft 386 kts 212°
2026-05-05 09:43 -28.11782 152.91231 27769 ft 388 kts 212°
2026-05-05 09:43 -28.14307 152.90111 28104 ft 389 kts 213°
2026-05-05 09:44 -28.16835 152.88987 28431 ft 392 kts 213°
2026-05-05 09:44 -28.19374 152.87855 28697 ft 395 kts 213°
2026-05-05 09:44 -28.21964 152.86697 28841 ft 402 kts 213°
2026-05-05 09:44 -28.24578 152.85526 28966 ft 409 kts 213°
2026-05-05 09:45 -28.27249 152.84330 29101 ft 415 kts 213°
2026-05-05 09:45 -28.29960 152.83118 29220 ft 422 kts 213°
2026-05-05 09:45 -28.32704 152.81894 29402 ft 428 kts 213°
2026-05-05 09:45 -28.35486 152.80653 29553 ft 434 kts 213°
2026-05-05 09:46 -28.38326 152.79386 29666 ft 440 kts 212°
2026-05-05 09:46 -28.41188 152.78110 29772 ft 445 kts 212°
2026-05-05 09:46 -28.44083 152.76819 29893 ft 450 kts 212°
2026-05-05 09:46 -28.47014 152.75511 30004 ft 455 kts 212°
2026-05-05 09:47 -28.49982 152.74187 30120 ft 459 kts 212°
2026-05-05 09:47 -28.52962 152.72859 30277 ft 462 kts 212°
2026-05-05 09:47 -28.55961 152.71521 30469 ft 463 kts 212°
2026-05-05 09:47 -28.58962 152.70182 30791 ft 462 kts 212°
2026-05-05 09:48 -28.61961 152.68838 31041 ft 464 kts 212°
2026-05-05 09:48 -28.64974 152.67484 31281 ft 465 kts 212°
2026-05-05 09:48 -28.67979 152.66136 31553 ft 466 kts 212°
2026-05-05 09:48 -28.70994 152.64784 31832 ft 466 kts 212°
2026-05-05 09:49 -28.74058 152.63407 32030 ft 468 kts 213°
2026-05-05 09:49 -28.77063 152.62050 32059 ft 474 kts 213°
2026-05-05 09:49 -28.83295 152.59229 32078 ft 488 kts 212°
2026-05-05 09:50 -28.89683 152.56336 32080 ft 499 kts 212°
2026-05-05 09:50 -28.96133 152.53285 32241 ft 503 kts 213°
2026-05-05 09:51 -28.99338 152.51692 32426 ft 503 kts 214°
2026-05-05 09:51 -29.02517 152.50025 32625 ft 501 kts 216°
2026-05-05 09:51 -29.05635 152.48296 32865 ft 498 kts 217°
2026-05-05 09:51 -29.07678 152.47105 33084 ft 496 kts 218°